User: anonymous   Login
Location: ??????????
(42.1626°N, 44.1160°E)
Time: 14:37:02
(UTC+00:00)
Language:

COSMOS 2455 - Orbit

View from above orbital plane
View from above orbital plane
View from above satellite
View from above satellite

Ground track
Ground track

The orbit data is extracted from the following two-line orbital elements,

1 36095U 09063A   21127.20834263 -.00000062  00000-0  98899-5 0  9999
2 36095  67.1461 112.1414 0003450 265.6573  94.4117 13.96768403584561
Epoch (UTC): 07 May 2021 05:00:00
Eccentricity: 0.0003450
inclination: 67.1461°
perigee height: 902 km
apogee height: 907 km
right ascension of ascending node: 112.1414°
argument of perigee: 265.6573°
revolutions per day: 13.96768403
mean anomaly at epoch: 94.4117°
orbit number at epoch: 58456

The dashed part of the orbit path shows where the satellite is in the earth's shadow,  

DLR